TimeEST,TemperatureF,Dew PointF,Humidity,Sea Level PressureIn,VisibilityMPH,Wind Direction,Wind SpeedMPH,Gust SpeedMPH,PrecipitationIn,Events,Conditions,WindDirDegrees,DateUTC
12:53 AM,24.1,12.9,62,30.19,10.0,WNW,5.8,-,N/A,,Clear,290,2011-01-02 05:53:00
1:53 AM,21.9,14.0,72,30.19,10.0,WNW,4.6,-,N/A,,Clear,290,2011-01-02 06:53:00
2:53 AM,21.9,12.0,66,30.22,10.0,WNW,4.6,-,N/A,,Clear,290,2011-01-02 07:53:00
3:53 AM,21.0,12.0,68,30.21,10.0,WNW,4.6,-,N/A,,Clear,290,2011-01-02 08:53:00
4:53 AM,21.0,12.9,71,30.21,10.0,West,3.5,-,N/A,,Clear,280,2011-01-02 09:53:00
5:53 AM,19.9,12.9,74,30.22,10.0,Calm,Calm,-,N/A,,Clear,0,2011-01-02 10:53:00
6:53 AM,19.9,12.9,74,30.24,10.0,Calm,Calm,-,N/A,,Clear,0,2011-01-02 11:53:00
7:53 AM,17.1,12.9,84,30.25,10.0,Calm,Calm,-,N/A,,Clear,0,2011-01-02 12:53:00
8:53 AM,19.9,12.0,71,30.26,10.0,West,6.9,-,N/A,,Clear,280,2011-01-02 13:53:00
9:53 AM,21.9,12.9,68,30.28,10.0,West,6.9,-,N/A,,Clear,280,2011-01-02 14:53:00
10:53 AM,21.9,12.0,66,30.31,10.0,WNW,4.6,-,N/A,,Clear,290,2011-01-02 15:53:00
11:53 AM,25.0,12.9,60,30.31,10.0,West,6.9,-,N/A,,Clear,280,2011-01-02 16:53:00
12:53 PM,26.1,12.9,58,30.30,10.0,WSW,8.1,-,N/A,,Clear,250,2011-01-02 17:53:00
1:53 PM,27.0,12.9,56,30.29,10.0,Variable,5.8,-,N/A,,Clear,0,2011-01-02 18:53:00
3:53 PM,28.0,12.0,51,30.29,10.0,SW,6.9,-,N/A,,Clear,220,2011-01-02 20:53:00
4:53 PM,28.0,12.0,51,30.29,10.0,WSW,9.2,-,N/A,,Clear,250,2011-01-02 21:53:00
5:53 PM,26.1,12.0,55,30.30,10.0,WSW,4.6,-,N/A,,Clear,250,2011-01-02 22:53:00
6:53 PM,24.1,12.9,62,30.30,10.0,SSW,5.8,-,N/A,,Clear,210,2011-01-02 23:53:00
7:53 PM,21.9,12.9,68,30.32,10.0,SSW,3.5,-,N/A,,Clear,210,2011-01-03 00:53:00
8:53 PM,21.9,14.0,72,30.30,10.0,WSW,4.6,-,N/A,,Clear,240,2011-01-03 01:53:00
9:53 PM,21.9,14.0,72,30.30,10.0,SW,4.6,-,N/A,,Clear,220,2011-01-03 02:53:00
10:53 PM,21.9,14.0,72,30.28,10.0,SSW,8.1,-,N/A,,Clear,200,2011-01-03 03:53:00
11:53 PM,21.9,14.0,72,30.28,10.0,SW,8.1,-,N/A,,Clear,220,2011-01-03 04:53:00